Terminal Aerodrome Forecast
Issued by NWS

Home | Current Version | Previous Version | Graphics & Text | Print | Product List | Glossary On
Versions: 1 2 3 4 5 6 7 8 9 10 11 12 13 14 15 16 17
000
FTUS43 KGRB 210900 AAA
TAFAUW
TAF AMD
KAUW 210901Z 2109/2206 02008KT P6SM BKN018
     FM211500 01006KT P6SM SCT040
     FM211800 03006KT P6SM SKC=

USA.gov is the U.S. government's official web portal to all federal, state and local government web resources and services.